Clarksburg, WV

9:20 PM EDT on October 19, 2019 (GMT -0400)
Benedum

Weather History for KCKB - August, 2019

Change the Weather History Date:

Tuesday, August 27, 2019

  Actual Average Record
Temperature  
Mean Temperature 71 °F -  
Max Temperature 79 °F 84 °F 95 °F (1948)
Min Temperature 64 °F 60 °F 44 °F (1945)
Cooling Degree Days 6    
Growing Degree Days 21 (Base 50)    
Moisture  
Dew Point 64 °F    
Average Humidity 82    
Maximum Humidity 94    
Minimum Humidity 69    
Precipitation  
Precipitation 0.69 in - - ()
Sea Level Pressure  
Sea Level Pressure 29.95 in    
Wind  
Wind Speed 3 mph ()    
Max Wind Speed 9 mph    
Max Gust Speed -    
Visibility 6.9 miles    
Events Rain    
Averages and records for this station are not official NWS values.
T = Trace of Precipitation, MM = Missing Value Source: Averaged Metar Reports

Daily Weather History Graph

Daily Weather History Graph

Search for Another Location

Airport or City:

Astronomy

Aug. 27, 2019 Rise Set
Actual Time 6:44 AM EDT 7:59 PM EDT
Civil Twilight 6:16 AM EDT 8:27 PM EDT
Nautical Twilight 5:43 AM EDT 9:00 PM EDT
Astronomical Twilight 5:08 AM EDT 9:35 PM EDT
Moon 3:08 AM EDT (8/27) 6:17 PM EDT (8/27)
Length of Visible Light 14h 10m
Length of Day
13h 14m
Waning Crescent, 11% of the Moon is Illuminated
Aug 27
Waning Crescent
Aug 30
New
Sep 5
First Quarter
Sep 14
Full
Sep 21
Last Quarter

Hourly Weather History & Observations

Time (EDT) Temp. Dew Point Humidity Pressure Visibility Wind Dir Wind Speed Gust Speed Precip Events Conditions
12:53 AM 66.9 °F 57.9 °F 73% 29.99 in 10.0 mi ESE 4.6 mph - 0.00 in Rain Light Rain
1:53 AM 66.9 °F 57.9 °F 73% 29.97 in 10.0 mi SSE 5.8 mph - 0.00 in   Overcast
2:53 AM 66.9 °F 59.0 °F 76% 29.96 in 10.0 mi SW 3.5 mph - N/A   Overcast
3:53 AM 64.9 °F 61.0 °F 87% 29.95 in 3.0 mi Calm Calm - 0.08 in Rain Rain
4:53 AM 66.0 °F 61.0 °F 84% 29.93 in 10.0 mi Calm Calm - 0.04 in   Overcast
5:53 AM 66.0 °F 62.1 °F 87% 29.94 in 10.0 mi West 3.5 mph - N/A   Overcast
6:53 AM 64.9 °F 62.1 °F 90% 29.96 in 4.0 mi Calm Calm - 0.02 in Rain Light Rain
7:01 AM 64.9 °F 62.1 °F 90% 30.00 in 1.0 mi Calm Calm - 0.07 in Rain Heavy Rain
7:13 AM 64.9 °F 62.1 °F 90% 30.00 in 1.0 mi Calm Calm - 0.20 in Rain Heavy Rain
7:50 AM 64.4 °F 62.6 °F 94% 30.00 in 1.0 mi SSE 4.6 mph - 0.42 in Rain Heavy Rain
7:53 AM 64.9 °F 62.1 °F 90% 29.96 in 1.0 mi SE 4.6 mph - 0.43 in Rain Heavy Rain
8:02 AM 64.9 °F 62.1 °F 90% 30.00 in 1.2 mi SSE 5.8 mph - 0.07 in Rain Heavy Rain
8:17 AM 64.9 °F 62.1 °F 90% 30.00 in 3.0 mi SSE 4.6 mph - 0.10 in Rain Light Rain
8:53 AM 66.9 °F 63.0 °F 87% 29.96 in 5.0 mi Calm Calm - 0.10 in Rain Light Rain
9:40 AM 68.0 °F 63.0 °F 84% 30.00 in 6.0 mi SSE 4.6 mph - 0.02 in Rain Light Rain
9:53 AM 68.0 °F 64.0 °F 87% 29.96 in 4.0 mi SSE 5.8 mph - 0.02 in Rain Light Rain
10:01 AM 68.0 °F 64.0 °F 87% 29.99 in 2.0 mi South 4.6 mph - 0.00 in Rain Light Rain
10:53 AM 70.0 °F 64.9 °F 84% 29.96 in 2.0 mi SSE 5.8 mph - 0.00 in   Haze
11:00 AM 71.1 °F 64.9 °F 81% 30.00 in 10.0 mi South 6.9 mph - N/A   Overcast
11:53 AM 72.0 °F 66.0 °F 81% 29.96 in 10.0 mi SSW 4.6 mph - N/A   Overcast
12:53 PM 73.0 °F 66.9 °F 81% 29.95 in 5.0 mi South 8.1 mph - 0.00 in   Haze
12:56 PM 73.0 °F 66.9 °F 81% 29.98 in 5.0 mi South 6.9 mph - N/A   Haze
1:53 PM 73.9 °F 66.0 °F 76% 29.93 in 10.0 mi SSW 9.2 mph - N/A   Overcast
2:53 PM 77.0 °F 68.0 °F 74% 29.91 in 10.0 mi South 5.8 mph - N/A   Overcast
3:53 PM 78.1 °F 68.0 °F 71% 29.90 in 10.0 mi SW 9.2 mph - N/A   Overcast
4:53 PM 77.0 °F 66.0 °F 69% 29.90 in 10.0 mi WSW 8.1 mph - N/A   Overcast
5:53 PM 77.0 °F 66.9 °F 71% 29.88 in 10.0 mi South 4.6 mph - N/A   Overcast
6:00 PM 77.0 °F 66.9 °F 71% 29.93 in 10.0 mi South 5.8 mph - N/A   Overcast
6:53 PM 78.1 °F 68.0 °F 71% 29.88 in 10.0 mi South 4.6 mph - N/A   Partly Cloudy
7:53 PM 75.9 °F 66.9 °F 74% 29.89 in 10.0 mi SW 4.6 mph - N/A   Clear
8:53 PM 73.9 °F 68.0 °F 82% 29.91 in 10.0 mi Calm Calm - N/A   Mostly Cloudy
9:53 PM 73.0 °F 68.0 °F 84% 29.91 in 10.0 mi Calm Calm - N/A   Overcast
10:53 PM 72.0 °F 68.0 °F 87% 29.90 in 10.0 mi Calm Calm - N/A   Clear
11:53 PM 70.0 °F 66.9 °F 90% 29.90 in 10.0 mi South 3.5 mph - N/A   Scattered Clouds